Time,TemperatureF,DewpointF,PressureIn,WindDirection,WindDirectionDegrees,WindSpeedMPH,WindSpeedGustMPH,Humidity,HourlyPrecipIn,Conditions,Clouds,dailyrainin,SoftwareType,DateUTC
2013-02-04 00:00:00,20.8,14.7,29.57,SW,223,4.0,13.0,77,0.00,,---,0.01,VWS V14.01,2013-02-04 05:00:00,
2013-02-04 00:01:00,20.8,14.7,29.57,WSW,238,6.0,14.0,77,0.00,,---,0.01,VWS V14.01,2013-02-04 05:01:00,
2013-02-04 00:06:00,20.7,14.6,29.57,SW,224,9.0,10.0,77,0.00,,---,0.00,VWS V14.01,2013-02-04 05:06:00,
2013-02-04 00:11:00,20.7,14.6,29.57,WSW,240,7.0,12.0,77,0.00,,---,0.00,VWS V14.01,2013-02-04 05:11:00,
2013-02-04 00:16:00,20.5,14.7,29.56,West,259,7.0,16.0,78,0.00,,---,0.00,VWS V14.01,2013-02-04 05:16:00,
2013-02-04 00:21:00,20.4,14.6,29.56,SW,225,7.0,16.0,78,0.00,,---,0.00,VWS V14.01,2013-02-04 05:21:00,
2013-02-04 00:26:00,20.3,14.8,29.56,SW,216,7.0,16.0,79,0.00,,---,0.00,VWS V14.01,2013-02-04 05:26:00,
2013-02-04 00:30:00,20.2,14.7,29.56,SW,233,7.0,16.0,79,0.00,,---,0.00,VWS V14.01,2013-02-04 05:30:00,
2013-02-04 00:31:00,20.2,14.7,29.56,SW,225,4.0,16.0,79,0.00,,---,0.00,VWS V14.01,2013-02-04 05:31:00,
2013-02-04 00:36:00,20.2,14.7,29.56,SW,227,4.0,12.0,79,0.00,,---,0.00,VWS V14.01,2013-02-04 05:36:00,
2013-02-04 00:41:00,20.1,14.6,29.56,SW,236,3.0,12.0,79,0.00,,---,0.00,VWS V14.01,2013-02-04 05:41:00,
2013-02-04 00:46:00,20.1,14.6,29.56,SW,223,4.0,12.0,79,0.00,,---,0.00,VWS V14.01,2013-02-04 05:46:00,
2013-02-04 00:51:00,20.0,14.6,29.56,SSW,211,5.0,12.0,79,0.00,,---,0.00,VWS V14.01,2013-02-04 05:51:00,
2013-02-04 00:56:00,20.0,14.3,29.56,SW,227,3.0,12.0,78,0.00,,---,0.00,VWS V14.01,2013-02-04 05:56:00,
2013-02-04 01:00:00,19.9,14.4,29.56,SW,223,3.0,12.0,79,0.00,,---,0.00,VWS V14.01,2013-02-04 06:00:00,
2013-02-04 01:01:00,19.9,14.4,29.56,WSW,242,3.0,12.0,79,0.00,,---,0.00,VWS V14.01,2013-02-04 06:01:00,
2013-02-04 01:06:00,19.9,14.4,29.56,WSW,245,4.0,8.0,79,0.00,,---,0.00,VWS V14.01,2013-02-04 06:06:00,
2013-02-04 01:11:00,19.9,14.2,29.56,SW,233,6.0,10.0,78,0.00,,---,0.00,VWS V14.01,2013-02-04 06:11:00,
2013-02-04 01:16:00,19.8,14.1,29.56,WSW,241,3.0,10.0,78,0.00,,---,0.00,VWS V14.01,2013-02-04 06:16:00,
2013-02-04 01:21:00,19.7,14.0,29.56,SW,223,7.0,10.0,78,0.00,,---,0.00,VWS V14.01,2013-02-04 06:21:00,
2013-02-04 01:26:00,19.7,14.0,29.57,West,263,6.0,11.0,78,0.00,,---,0.00,VWS V14.01,2013-02-04 06:26:00,
2013-02-04 01:30:00,19.7,14.0,29.57,SSW,200,4.0,13.0,78,0.00,,---,0.00,VWS V14.01,2013-02-04 06:30:00,
2013-02-04 01:31:00,19.7,14.0,29.57,SW,234,7.0,11.0,78,0.00,,---,0.00,VWS V14.01,2013-02-04 06:31:00,
2013-02-04 01:36:00,19.7,14.0,29.56,WSW,245,8.0,11.0,78,0.00,,---,0.00,VWS V14.01,2013-02-04 06:36:00,
2013-02-04 01:41:00,19.6,14.2,29.56,SSW,207,6.0,13.0,79,0.00,,---,0.00,VWS V14.01,2013-02-04 06:41:00,
2013-02-04 01:46:00,19.5,14.1,29.57,SW,225,5.0,13.0,79,0.00,,---,0.00,VWS V14.01,2013-02-04 06:46:00,
2013-02-04 01:51:00,19.4,14.0,29.57,SW,219,4.0,13.0,79,0.00,,---,0.00,VWS V14.01,2013-02-04 06:51:00,
2013-02-04 01:56:00,19.4,14.0,29.57,SW,226,4.0,13.0,79,0.00,,---,0.00,VWS V14.01,2013-02-04 06:56:00,
2013-02-04 02:00:00,19.4,14.0,29.57,SW,217,6.0,13.0,79,0.00,,---,0.00,VWS V14.01,2013-02-04 07:00:00,
2013-02-04 02:01:00,19.4,14.0,29.57,SW,231,4.0,13.0,79,0.00,,---,0.00,VWS V14.01,2013-02-04 07:01:00,
2013-02-04 02:06:00,19.4,13.7,29.56,SW,231,7.0,10.0,78,0.00,,---,0.00,VWS V14.01,2013-02-04 07:06:00,
2013-02-04 02:11:00,19.3,13.9,29.56,WSW,241,5.0,10.0,79,0.00,,---,0.00,VWS V14.01,2013-02-04 07:11:00,
2013-02-04 02:16:00,19.3,13.6,29.56,SW,234,1.0,10.0,78,0.00,,---,0.00,VWS V14.01,2013-02-04 07:16:00,
2013-02-04 02:21:00,19.3,13.6,29.56,SSW,202,3.0,10.0,78,0.00,,---,0.00,VWS V14.01,2013-02-04 07:21:00,
2013-02-04 02:26:00,19.3,13.6,29.56,SW,227,4.0,10.0,78,0.00,,---,0.00,VWS V14.01,2013-02-04 07:26:00,
2013-02-04 02:30:00,19.2,13.5,29.55,SW,214,3.0,11.0,78,0.00,,---,0.00,VWS V14.01,2013-02-04 07:30:00,
2013-02-04 02:31:00,19.2,13.5,29.55,SW,217,0.0,10.0,78,0.00,,---,0.00,VWS V14.01,2013-02-04 07:31:00,
2013-02-04 02:36:00,19.2,13.5,29.55,WSW,252,7.0,10.0,78,0.00,,---,0.00,VWS V14.01,2013-02-04 07:36:00,
2013-02-04 02:41:00,19.2,13.5,29.55,SSW,196,4.0,10.0,78,0.00,,---,0.00,VWS V14.01,2013-02-04 07:41:00,
2013-02-04 02:46:00,19.1,13.4,29.55,WSW,247,3.0,10.0,78,0.00,,---,0.00,VWS V14.01,2013-02-04 07:46:00,
2013-02-04 02:51:00,19.1,13.4,29.55,SW,236,5.0,10.0,78,0.00,,---,0.00,VWS V14.01,2013-02-04 07:51:00,
2013-02-04 02:56:00,19.0,13.3,29.55,SSW,198,5.0,10.0,78,0.00,,---,0.00,VWS V14.01,2013-02-04 07:56:00,
2013-02-04 03:00:00,19.0,13.3,29.54,SSW,198,6.0,12.0,78,0.00,,---,0.00,VWS V14.01,2013-02-04 08:00:00,
2013-02-04 03:01:00,19.0,13.3,29.54,WSW,238,4.0,10.0,78,0.00,,---,0.00,VWS V14.01,2013-02-04 08:01:00,
2013-02-04 03:06:00,19.0,13.3,29.54,SW,216,5.0,9.0,78,0.00,,---,0.00,VWS V14.01,2013-02-04 08:06:00,
2013-02-04 03:11:00,19.0,13.3,29.54,West,279,5.0,10.0,78,0.00,,---,0.00,VWS V14.01,2013-02-04 08:11:00,
2013-02-04 03:16:00,18.9,13.2,29.53,WSW,240,8.0,13.0,78,0.00,,---,0.00,VWS V14.01,2013-02-04 08:16:00,
2013-02-04 03:21:00,18.9,13.2,29.53,WSW,250,5.0,13.0,78,0.00,,---,0.00,VWS V14.01,2013-02-04 08:21:00,
2013-02-04 03:26:00,18.7,13.0,29.53,SW,217,4.0,13.0,78,0.00,,---,0.00,VWS V14.01,2013-02-04 08:26:00,
2013-02-04 03:30:00,18.5,12.5,29.53,South,171,4.0,13.0,77,0.00,,---,0.00,VWS V14.01,2013-02-04 08:30:00,
2013-02-04 03:31:00,18.5,12.8,29.53,South,190,5.0,13.0,78,0.00,,---,0.00,VWS V14.01,2013-02-04 08:31:00,
2013-02-04 03:36:00,18.4,12.4,29.54,SSE,167,5.0,7.0,77,0.00,,---,0.00,VWS V14.01,2013-02-04 08:36:00,
2013-02-04 03:41:00,18.4,12.4,29.54,SSW,201,3.0,10.0,77,0.00,,---,0.00,VWS V14.01,2013-02-04 08:41:00,
2013-02-04 03:46:00,18.3,12.3,29.54,SW,218,7.0,10.0,77,0.00,,---,0.00,VWS V14.01,2013-02-04 08:46:00,
2013-02-04 03:51:00,18.1,12.1,29.54,SSE,167,2.0,10.0,77,0.00,,---,0.00,VWS V14.01,2013-02-04 08:51:00,
2013-02-04 03:56:00,18.0,12.0,29.54,SSE,163,3.0,10.0,77,0.00,,---,0.00,VWS V14.01,2013-02-04 08:56:00,
2013-02-04 04:00:00,17.9,11.9,29.54,SSE,167,4.0,10.0,77,0.00,,---,0.00,VWS V14.01,2013-02-04 09:00:00,
2013-02-04 04:01:00,17.9,11.9,29.54,SSW,211,4.0,10.0,77,0.00,,---,0.00,VWS V14.01,2013-02-04 09:01:00,
2013-02-04 04:06:00,17.9,11.9,29.54,SSE,162,8.0,9.0,77,0.00,,---,0.00,VWS V14.01,2013-02-04 09:06:00,
2013-02-04 04:11:00,17.9,11.9,29.54,South,169,3.0,9.0,77,0.00,,---,0.00,VWS V14.01,2013-02-04 09:11:00,
2013-02-04 04:16:00,17.8,12.1,29.54,South,176,3.0,9.0,78,0.00,,---,0.00,VWS V14.01,2013-02-04 09:16:00,
2013-02-04 04:21:00,17.6,11.9,29.54,South,172,2.0,9.0,78,0.00,,---,0.00,VWS V14.01,2013-02-04 09:21:00,
2013-02-04 04:26:00,17.5,11.8,29.54,SSW,198,2.0,9.0,78,0.00,,---,0.00,VWS V14.01,2013-02-04 09:26:00,
2013-02-04 04:30:00,17.4,11.7,29.54,SW,218,5.0,9.0,78,0.00,,---,0.00,VWS V14.01,2013-02-04 09:30:00,
2013-02-04 04:31:00,17.4,11.7,29.54,SSE,153,7.0,9.0,78,0.00,,---,0.00,VWS V14.01,2013-02-04 09:31:00,
2013-02-04 04:36:00,17.4,11.4,29.54,SSE,165,4.0,6.0,77,0.00,,---,0.00,VWS V14.01,2013-02-04 09:36:00,
2013-02-04 04:41:00,17.4,11.7,29.54,SSE,164,4.0,8.0,78,0.00,,---,0.00,VWS V14.01,2013-02-04 09:41:00,
2013-02-04 04:46:00,17.4,11.7,29.54,SE,142,6.0,8.0,78,0.00,,---,0.00,VWS V14.01,2013-02-04 09:46:00,
2013-02-04 04:51:00,17.5,11.5,29.54,South,188,3.0,11.0,77,0.00,,---,0.00,VWS V14.01,2013-02-04 09:51:00,
2013-02-04 04:56:00,17.4,11.4,29.54,SSW,206,7.0,11.0,77,0.00,,---,0.00,VWS V14.01,2013-02-04 09:56:00,
2013-02-04 05:00:00,17.4,11.1,29.54,South,191,4.0,13.0,76,0.00,,---,0.00,VWS V14.01,2013-02-04 10:00:00,
2013-02-04 05:01:00,17.4,11.4,29.54,SSW,198,8.0,13.0,77,0.00,,---,0.00,VWS V14.01,2013-02-04 10:01:00,
2013-02-04 05:06:00,17.4,11.1,29.53,SSW,194,5.0,8.0,76,0.00,,---,0.00,VWS V14.01,2013-02-04 10:06:00,
2013-02-04 05:11:00,17.5,11.2,29.53,SSE,165,6.0,9.0,76,0.00,,---,0.00,VWS V14.01,2013-02-04 10:11:00,
2013-02-04 05:16:00,17.5,10.9,29.53,SW,225,3.0,9.0,75,0.00,,---,0.00,VWS V14.01,2013-02-04 10:16:00,
2013-02-04 05:21:00,17.5,10.9,29.53,SSW,213,4.0,9.0,75,0.00,,---,0.00,VWS V14.01,2013-02-04 10:21:00,
2013-02-04 05:26:00,17.4,10.9,29.53,South,182,7.0,9.0,75,0.00,,---,0.00,VWS V14.01,2013-02-04 10:26:00,
2013-02-04 05:30:00,17.2,10.4,29.53,SSE,163,2.0,10.0,74,0.00,,---,0.00,VWS V14.01,2013-02-04 10:30:00,
2013-02-04 05:31:00,17.3,10.4,29.53,South,186,3.0,10.0,74,0.00,,---,0.00,VWS V14.01,2013-02-04 10:31:00,
2013-02-04 05:36:00,17.1,10.3,29.53,South,188,2.0,4.0,74,0.00,,---,0.00,VWS V14.01,2013-02-04 10:36:00,
2013-02-04 05:41:00,16.9,10.1,29.53,South,185,2.0,6.0,74,0.00,,---,0.00,VWS V14.01,2013-02-04 10:41:00,
2013-02-04 05:46:00,16.7,9.9,29.53,SSE,157,2.0,8.0,74,0.00,,---,0.00,VWS V14.01,2013-02-04 10:46:00,
2013-02-04 05:51:00,16.5,10.0,29.53,SSW,200,2.0,9.0,75,0.00,,---,0.00,VWS V14.01,2013-02-04 10:51:00,
2013-02-04 05:56:00,16.4,9.9,29.53,SSE,155,2.0,9.0,75,0.00,,---,0.00,VWS V14.01,2013-02-04 10:56:00,
2013-02-04 06:00:00,16.2,9.7,29.53,SSW,203,2.0,9.0,75,0.00,,---,0.00,VWS V14.01,2013-02-04 11:00:00,
2013-02-04 06:01:00,16.3,9.8,29.53,SSW,213,5.0,9.0,75,0.00,,---,0.00,VWS V14.01,2013-02-04 11:01:00,
2013-02-04 06:06:00,16.2,9.7,29.54,SSE,161,2.0,5.0,75,0.00,,---,0.00,VWS V14.01,2013-02-04 11:06:00,
2013-02-04 06:11:00,16.0,9.5,29.53,SSW,194,4.0,7.0,75,0.00,,---,0.00,VWS V14.01,2013-02-04 11:11:00,
2013-02-04 06:16:00,15.8,9.3,29.53,SW,215,2.0,8.0,75,0.00,,---,0.00,VWS V14.01,2013-02-04 11:16:00,
2013-02-04 06:21:00,15.7,9.5,29.54,South,190,0.0,8.0,76,0.00,,---,0.00,VWS V14.01,2013-02-04 11:21:00,
2013-02-04 06:26:00,15.6,9.4,29.53,SW,215,2.0,8.0,76,0.00,,---,0.00,VWS V14.01,2013-02-04 11:26:00,
2013-02-04 06:30:00,15.3,9.1,29.53,SSW,213,3.0,8.0,76,0.00,,---,0.00,VWS V14.01,2013-02-04 11:30:00,
2013-02-04 06:31:00,15.4,9.2,29.54,SSW,196,5.0,8.0,76,0.00,,---,0.00,VWS V14.01,2013-02-04 11:31:00,
2013-02-04 06:36:00,15.2,9.0,29.53,South,182,3.0,5.0,76,0.00,,---,0.00,VWS V14.01,2013-02-04 11:36:00,
2013-02-04 06:41:00,15.1,9.2,29.53,SSW,213,1.0,6.0,77,0.00,,---,0.00,VWS V14.01,2013-02-04 11:41:00,
2013-02-04 06:46:00,15.0,9.1,29.53,South,185,4.0,6.0,77,0.00,,---,0.00,VWS V14.01,2013-02-04 11:46:00,
2013-02-04 06:51:00,14.9,9.0,29.53,SSW,197,4.0,6.0,77,0.00,,---,0.00,VWS V14.01,2013-02-04 11:51:00,
2013-02-04 06:56:00,14.8,9.2,29.53,SSE,166,2.0,6.0,78,0.00,,---,0.00,VWS V14.01,2013-02-04 11:56:00,
2013-02-04 07:00:00,14.7,9.1,29.54,SSE,165,3.0,6.0,78,0.00,,---,0.00,VWS V14.01,2013-02-04 12:00:00,
2013-02-04 07:01:00,14.7,9.1,29.53,South,171,1.0,6.0,78,0.00,,---,0.00,VWS V14.01,2013-02-04 12:01:00,
2013-02-04 07:06:00,14.7,9.1,29.54,SSW,196,3.0,6.0,78,0.00,,---,0.00,VWS V14.01,2013-02-04 12:06:00,
2013-02-04 07:11:00,14.7,9.1,29.53,SSE,167,3.0,6.0,78,0.00,,---,0.00,VWS V14.01,2013-02-04 12:11:00,
2013-02-04 07:16:00,14.7,9.1,29.54,South,185,2.0,6.0,78,0.00,,---,0.00,VWS V14.01,2013-02-04 12:16:00,
2013-02-04 07:21:00,14.7,9.4,29.54,South,189,3.0,6.0,79,0.00,,---,0.00,VWS V14.01,2013-02-04 12:21:00,
2013-02-04 07:26:00,14.8,9.2,29.54,South,183,1.0,7.0,78,0.00,,---,0.00,VWS V14.01,2013-02-04 12:26:00,
2013-02-04 07:30:00,14.9,9.3,29.54,SSW,192,2.0,7.0,78,0.00,,---,0.00,VWS V14.01,2013-02-04 12:30:00,
2013-02-04 07:31:00,14.8,9.2,29.54,South,178,2.0,7.0,78,0.00,,---,0.00,VWS V14.01,2013-02-04 12:31:00,
2013-02-04 07:36:00,14.9,9.6,29.54,SSE,157,3.0,4.0,79,0.00,,---,0.00,VWS V14.01,2013-02-04 12:36:00,
2013-02-04 07:41:00,15.1,9.5,29.54,South,182,4.0,7.0,78,0.00,,---,0.00,VWS V14.01,2013-02-04 12:41:00,
2013-02-04 07:46:00,15.3,9.7,29.54,South,184,2.0,9.0,78,0.00,,---,0.00,VWS V14.01,2013-02-04 12:46:00,
2013-02-04 07:51:00,15.5,9.9,29.54,South,177,3.0,9.0,78,0.00,,---,0.00,VWS V14.01,2013-02-04 12:51:00,
2013-02-04 07:56:00,16.0,10.1,29.54,South,184,2.0,9.0,77,0.00,,---,0.00,VWS V14.01,2013-02-04 12:56:00,
2013-02-04 08:00:00,16.6,10.7,29.54,SSE,165,6.0,11.0,77,0.00,,---,0.00,VWS V14.01,2013-02-04 13:00:00,
2013-02-04 08:01:00,16.4,10.5,29.54,SE,145,4.0,10.0,77,0.00,,---,0.00,VWS V14.01,2013-02-04 13:01:00,
2013-02-04 08:06:00,16.7,10.5,29.54,South,171,4.0,7.0,76,0.00,,---,0.00,VWS V14.01,2013-02-04 13:06:00,
2013-02-04 08:11:00,17.0,10.8,29.54,SSW,203,5.0,11.0,76,0.00,,---,0.00,VWS V14.01,2013-02-04 13:11:00,
2013-02-04 08:16:00,17.3,10.8,29.54,SSW,201,6.0,11.0,75,0.00,,---,0.00,VWS V14.01,2013-02-04 13:16:00,
2013-02-04 08:21:00,17.6,10.7,29.55,South,171,4.0,11.0,74,0.00,,---,0.00,VWS V14.01,2013-02-04 13:21:00,
2013-02-04 08:26:00,17.9,11.0,29.54,SSW,193,5.0,11.0,74,0.00,,---,0.00,VWS V14.01,2013-02-04 13:26:00,
2013-02-04 08:30:00,18.5,11.3,29.55,SSW,211,6.0,11.0,73,0.00,,---,0.00,VWS V14.01,2013-02-04 13:30:00,
2013-02-04 08:31:00,18.2,11.0,29.54,South,180,7.0,11.0,73,0.00,,---,0.00,VWS V14.01,2013-02-04 13:31:00,
2013-02-04 08:36:00,18.6,11.1,29.55,South,183,2.0,7.0,72,0.00,,---,0.00,VWS V14.01,2013-02-04 13:36:00,
2013-02-04 08:41:00,19.0,11.2,29.55,SSE,159,8.0,18.0,71,0.00,,---,0.00,VWS V14.01,2013-02-04 13:41:00,
2013-02-04 08:46:00,19.4,11.2,29.54,SW,230,5.0,18.0,70,0.00,,---,0.00,VWS V14.01,2013-02-04 13:46:00,
2013-02-04 08:51:00,19.7,11.2,29.54,South,177,5.0,18.0,69,0.00,,---,0.00,VWS V14.01,2013-02-04 13:51:00,
2013-02-04 08:56:00,20.1,11.2,29.54,SSE,163,7.0,18.0,68,0.00,,---,0.00,VWS V14.01,2013-02-04 13:56:00,
2013-02-04 09:00:00,20.7,11.5,29.54,South,181,6.0,18.0,67,0.00,,---,0.00,VWS V14.01,2013-02-04 14:00:00,
2013-02-04 09:01:00,20.5,11.3,29.54,SSW,199,4.0,18.0,67,0.00,,---,0.00,VWS V14.01,2013-02-04 14:01:00,
2013-02-04 09:06:00,20.8,11.2,29.54,South,191,7.0,10.0,66,0.00,,---,0.00,VWS V14.01,2013-02-04 14:06:00,
2013-02-04 09:11:00,21.1,11.5,29.54,South,173,5.0,13.0,66,0.00,,---,0.00,VWS V14.01,2013-02-04 14:11:00,
2013-02-04 09:16:00,21.4,11.1,29.54,SSW,198,6.0,15.0,64,0.00,,---,0.00,VWS V14.01,2013-02-04 14:16:00,
2013-02-04 09:21:00,21.7,11.4,29.54,SSW,212,7.0,15.0,64,0.00,,---,0.00,VWS V14.01,2013-02-04 14:21:00,
2013-02-04 09:26:00,21.9,11.2,29.54,SSW,209,9.0,17.0,63,0.00,,---,0.00,VWS V14.01,2013-02-04 14:26:00,
2013-02-04 09:30:00,22.5,11.1,29.53,SSE,149,7.0,17.0,61,0.00,,---,0.00,VWS V14.01,2013-02-04 14:30:00,
2013-02-04 09:31:00,22.3,11.3,29.53,SW,216,3.0,17.0,62,0.00,,---,0.00,VWS V14.01,2013-02-04 14:31:00,
2013-02-04 09:36:00,22.5,11.1,29.53,South,188,5.0,10.0,61,0.00,,---,0.00,VWS V14.01,2013-02-04 14:36:00,
2013-02-04 09:41:00,22.7,10.9,29.53,SSW,196,15.0,17.0,60,0.00,,---,0.00,VWS V14.01,2013-02-04 14:41:00,
2013-02-04 09:46:00,22.8,10.6,29.53,South,188,7.0,19.0,59,0.00,,---,0.00,VWS V14.01,2013-02-04 14:46:00,
2013-02-04 09:51:00,23.0,10.4,29.52,West,277,5.0,19.0,58,0.00,,---,0.00,VWS V14.01,2013-02-04 14:51:00,
2013-02-04 09:56:00,23.4,11.2,29.53,SSW,192,3.0,19.0,59,0.00,,---,0.00,VWS V14.01,2013-02-04 14:56:00,
2013-02-04 10:00:00,24.4,11.4,29.52,SSE,163,12.0,19.0,57,0.00,,---,0.00,VWS V14.01,2013-02-04 15:00:00,
2013-02-04 10:01:00,24.2,11.6,29.52,SSW,204,13.0,19.0,58,0.00,,---,0.00,VWS V14.01,2013-02-04 15:01:00,
2013-02-04 10:06:00,24.5,11.1,29.53,SSW,194,3.0,13.0,56,0.00,,---,0.00,VWS V14.01,2013-02-04 15:06:00,
2013-02-04 10:11:00,24.4,11.4,29.53,South,183,5.0,20.0,57,0.00,,---,0.00,VWS V14.01,2013-02-04 15:11:00,
2013-02-04 10:16:00,24.7,10.9,29.53,SW,216,5.0,20.0,55,0.00,,---,0.00,VWS V14.01,2013-02-04 15:16:00,
2013-02-04 10:21:00,24.5,11.9,29.52,SW,231,13.0,21.0,58,0.00,,---,0.00,VWS V14.01,2013-02-04 15:21:00,
2013-02-04 10:26:00,24.5,12.2,29.53,SSW,202,13.0,25.0,59,0.00,,---,0.00,VWS V14.01,2013-02-04 15:26:00,
2013-02-04 10:30:00,24.6,13.4,29.52,SW,228,23.0,25.0,62,0.00,,---,0.00,VWS V14.01,2013-02-04 15:30:00,
2013-02-04 10:31:00,24.4,12.5,29.53,South,186,17.0,25.0,60,0.00,,---,0.00,VWS V14.01,2013-02-04 15:31:00,
2013-02-04 10:36:00,24.5,13.4,29.53,SSE,164,9.0,23.0,62,0.00,,---,0.00,VWS V14.01,2013-02-04 15:36:00,
2013-02-04 10:41:00,24.3,13.2,29.52,SSW,207,13.0,23.0,62,0.00,,---,0.00,VWS V14.01,2013-02-04 15:41:00,
2013-02-04 10:46:00,24.3,14.6,29.52,South,169,9.0,23.0,66,0.00,,---,0.00,VWS V14.01,2013-02-04 15:46:00,
2013-02-04 10:51:00,24.7,13.9,29.52,South,169,11.0,23.0,63,0.00,,---,0.00,VWS V14.01,2013-02-04 15:51:00,
2013-02-04 10:56:00,25.1,13.6,29.52,South,174,11.0,23.0,61,0.00,,---,0.00,VWS V14.01,2013-02-04 15:56:00,
2013-02-04 11:00:00,25.1,13.6,29.52,SSW,192,13.0,23.0,61,0.00,,---,0.00,VWS V14.01,2013-02-04 16:00:00,
2013-02-04 11:01:00,25.1,12.8,29.52,SSW,211,5.0,23.0,59,0.00,,---,0.00,VWS V14.01,2013-02-04 16:01:00,
2013-02-04 11:06:00,25.1,13.2,29.52,South,171,7.0,21.0,60,0.00,,---,0.00,VWS V14.01,2013-02-04 16:06:00,
2013-02-04 11:11:00,25.1,12.8,29.52,SW,219,11.0,21.0,59,0.00,,---,0.00,VWS V14.01,2013-02-04 16:11:00,
2013-02-04 11:16:00,25.4,11.9,29.52,SSW,195,5.0,21.0,56,0.00,,---,0.00,VWS V14.01,2013-02-04 16:16:00,
2013-02-04 11:21:00,26.2,13.1,29.52,SE,132,9.0,21.0,57,0.00,,---,0.00,VWS V14.01,2013-02-04 16:21:00,
2013-02-04 11:26:00,26.0,10.4,29.52,South,173,12.0,21.0,51,0.00,,---,0.00,VWS V14.01,2013-02-04 16:26:00,
2013-02-04 11:30:00,25.9,10.7,29.52,WSW,237,8.0,24.0,52,0.00,,---,0.00,VWS V14.01,2013-02-04 16:30:00,
2013-02-04 11:31:00,25.9,10.3,29.52,SSW,209,9.0,24.0,51,0.00,,---,0.00,VWS V14.01,2013-02-04 16:31:00,
2013-02-04 11:36:00,26.0,10.8,29.52,SW,222,8.0,16.0,52,0.00,,---,0.00,VWS V14.01,2013-02-04 16:36:00,
2013-02-04 11:41:00,26.4,10.3,29.52,South,184,15.0,21.0,50,0.00,,---,0.00,VWS V14.01,2013-02-04 16:41:00,
2013-02-04 11:46:00,26.3,10.2,29.52,SSE,166,5.0,21.0,50,0.00,,---,0.00,VWS V14.01,2013-02-04 16:46:00,
2013-02-04 11:51:00,26.5,9.9,29.51,South,172,12.0,21.0,49,0.00,,---,0.00,VWS V14.01,2013-02-04 16:51:00,
2013-02-04 11:56:00,26.4,9.4,29.52,SE,138,13.0,24.0,48,0.00,,---,0.00,VWS V14.01,2013-02-04 16:56:00,
2013-02-04 12:00:00,26.0,9.5,29.52,SSE,167,12.0,25.0,49,0.00,,---,0.00,VWS V14.01,2013-02-04 17:00:00,
2013-02-04 12:01:00,26.1,8.6,29.52,SSE,153,20.0,25.0,47,0.00,,---,0.00,VWS V14.01,2013-02-04 17:01:00,
2013-02-04 12:06:00,26.0,8.6,29.52,SSE,157,16.0,21.0,47,0.00,,---,0.00,VWS V14.01,2013-02-04 17:06:00,
2013-02-04 12:11:00,26.5,9.0,29.52,South,169,6.0,21.0,47,0.00,,---,0.00,VWS V14.01,2013-02-04 17:11:00,
2013-02-04 12:16:00,26.6,9.6,29.52,SSW,195,7.0,21.0,48,0.00,,---,0.00,VWS V14.01,2013-02-04 17:16:00,
2013-02-04 12:21:00,26.9,8.4,29.51,SSE,157,8.0,21.0,45,0.00,,---,0.00,VWS V14.01,2013-02-04 17:21:00,
2013-02-04 12:26:00,26.8,8.3,29.51,SE,128,11.0,26.0,45,0.00,,---,0.00,VWS V14.01,2013-02-04 17:26:00,
2013-02-04 12:30:00,27.0,8.0,29.51,South,171,11.0,26.0,44,0.00,,---,0.00,VWS V14.01,2013-02-04 17:30:00,
2013-02-04 12:31:00,27.1,8.6,29.52,SE,142,19.0,26.0,45,0.00,,---,0.00,VWS V14.01,2013-02-04 17:31:00,
2013-02-04 12:36:00,26.9,7.9,29.51,SSE,166,6.0,20.0,44,0.00,,---,0.00,VWS V14.01,2013-02-04 17:36:00,
2013-02-04 12:41:00,26.7,7.2,29.51,SSE,163,12.0,25.0,43,0.00,,---,0.00,VWS V14.01,2013-02-04 17:41:00,
2013-02-04 12:46:00,26.3,6.9,29.51,SSE,152,6.0,25.0,43,0.00,,---,0.00,VWS V14.01,2013-02-04 17:46:00,
2013-02-04 12:51:00,26.3,6.9,29.52,SW,217,7.0,25.0,43,0.00,,---,0.00,VWS V14.01,2013-02-04 17:51:00,
2013-02-04 12:56:00,26.8,6.3,29.51,SSE,153,17.0,25.0,41,0.00,,---,0.00,VWS V14.01,2013-02-04 17:56:00,
2013-02-04 13:00:00,27.8,7.2,29.51,SE,130,16.0,25.0,41,0.00,,---,0.00,VWS V14.01,2013-02-04 18:00:00,
2013-02-04 13:01:00,27.2,7.2,29.51,SW,229,9.0,25.0,42,0.00,,---,0.00,VWS V14.01,2013-02-04 18:01:00,
2013-02-04 13:06:00,27.5,6.4,29.51,SSE,156,15.0,26.0,40,0.00,,---,0.00,VWS V14.01,2013-02-04 18:06:00,
2013-02-04 13:11:00,27.0,4.2,29.52,SE,139,23.0,26.0,37,0.00,,---,0.00,VWS V14.01,2013-02-04 18:11:00,
2013-02-04 13:16:00,26.8,5.2,29.52,SE,125,21.0,26.0,39,0.00,,---,0.00,VWS V14.01,2013-02-04 18:16:00,
2013-02-04 13:21:00,26.9,4.1,29.51,SSE,168,10.0,27.0,37,0.00,,---,0.00,VWS V14.01,2013-02-04 18:21:00,
2013-02-04 13:26:00,27.1,4.3,29.52,SSW,207,11.0,27.0,37,0.00,,---,0.00,VWS V14.01,2013-02-04 18:26:00,
2013-02-04 13:30:00,27.1,4.9,29.52,SE,144,22.0,27.0,38,0.00,,---,0.00,VWS V14.01,2013-02-04 18:30:00,
2013-02-04 13:31:00,27.4,5.2,29.52,SSE,157,13.0,27.0,38,0.00,,---,0.00,VWS V14.01,2013-02-04 18:31:00,
2013-02-04 13:36:00,27.0,5.3,29.52,SSE,155,14.0,25.0,39,0.00,,---,0.00,VWS V14.01,2013-02-04 18:36:00,
2013-02-04 13:41:00,27.2,5.5,29.53,SSW,208,10.0,25.0,39,0.00,,---,0.00,VWS V14.01,2013-02-04 18:41:00,
2013-02-04 13:46:00,27.3,5.6,29.53,SSE,164,9.0,25.0,39,0.00,,---,0.00,VWS V14.01,2013-02-04 18:46:00,
2013-02-04 13:51:00,26.8,4.6,29.53,South,188,11.0,25.0,38,0.00,,---,0.00,VWS V14.01,2013-02-04 18:51:00,
2013-02-04 13:56:00,26.4,5.4,29.53,SSE,164,9.0,25.0,40,0.00,,---,0.00,VWS V14.01,2013-02-04 18:56:00,
2013-02-04 14:00:00,25.4,5.0,29.53,South,174,4.0,25.0,41,0.00,,---,0.00,VWS V14.01,2013-02-04 19:00:00,
2013-02-04 14:01:00,25.8,5.4,29.53,SSW,193,4.0,25.0,41,0.00,,---,0.00,VWS V14.01,2013-02-04 19:01:00,
2013-02-04 14:06:00,25.3,5.4,29.54,SW,217,11.0,16.0,42,0.00,,---,0.00,VWS V14.01,2013-02-04 19:06:00,
2013-02-04 14:11:00,25.0,5.2,29.54,SSE,148,6.0,19.0,42,0.00,,---,0.00,VWS V14.01,2013-02-04 19:11:00,
2013-02-04 14:16:00,24.9,5.1,29.54,SSW,203,9.0,19.0,42,0.00,,---,0.00,VWS V14.01,2013-02-04 19:16:00,
2013-02-04 14:21:00,24.7,5.4,29.54,SSE,164,9.0,19.0,43,0.00,,---,0.00,VWS V14.01,2013-02-04 19:21:00,
2013-02-04 14:26:00,24.9,5.1,29.54,SSW,198,7.0,19.0,42,0.00,,---,0.00,VWS V14.01,2013-02-04 19:26:00,
2013-02-04 14:30:00,25.9,4.9,29.54,SSE,167,9.0,20.0,40,0.00,,---,0.00,VWS V14.01,2013-02-04 19:30:00,
2013-02-04 14:31:00,25.4,4.5,29.54,SE,142,13.0,20.0,40,0.00,,---,0.00,VWS V14.01,2013-02-04 19:31:00,
2013-02-04 14:36:00,25.9,4.4,29.55,SSW,200,17.0,25.0,39,0.00,,---,0.00,VWS V14.01,2013-02-04 19:36:00,
2013-02-04 14:41:00,26.0,4.4,29.55,South,177,13.0,27.0,39,0.00,,---,0.00,VWS V14.01,2013-02-04 19:41:00,
2013-02-04 14:46:00,26.2,5.2,29.55,SSE,167,11.0,27.0,40,0.00,,---,0.00,VWS V14.01,2013-02-04 19:46:00,
2013-02-04 14:51:00,26.7,5.6,29.55,SSE,165,8.0,27.0,40,0.00,,---,0.00,VWS V14.01,2013-02-04 19:51:00,
2013-02-04 14:56:00,26.8,5.7,29.55,SSW,209,12.0,27.0,40,0.00,,---,0.00,VWS V14.01,2013-02-04 19:56:00,
2013-02-04 15:00:00,25.9,6.5,29.55,South,189,12.0,27.0,43,0.00,,---,0.00,VWS V14.01,2013-02-04 20:00:00,
2013-02-04 15:01:00,26.2,6.2,29.55,South,177,7.0,27.0,42,0.00,,---,0.00,VWS V14.01,2013-02-04 20:01:00,
2013-02-04 15:06:00,25.9,6.5,29.55,South,169,9.0,12.0,43,0.00,,---,0.00,VWS V14.01,2013-02-04 20:06:00,
2013-02-04 15:11:00,25.6,6.2,29.55,SSE,167,10.0,14.0,43,0.00,,---,0.00,VWS V14.01,2013-02-04 20:11:00,
2013-02-04 15:16:00,25.8,6.9,29.55,SSE,163,9.0,20.0,44,0.00,,---,0.00,VWS V14.01,2013-02-04 20:16:00,
2013-02-04 15:21:00,26.1,6.7,29.55,South,188,3.0,20.0,43,0.00,,---,0.00,VWS V14.01,2013-02-04 20:21:00,
2013-02-04 15:26:00,26.2,6.2,29.56,SSW,205,9.0,20.0,42,0.00,,---,0.00,VWS V14.01,2013-02-04 20:26:00,
2013-02-04 15:30:00,26.0,5.0,29.56,SW,223,7.0,20.0,40,0.00,,---,0.00,VWS V14.01,2013-02-04 20:30:00,
2013-02-04 15:31:00,26.0,5.5,29.55,SSE,157,15.0,20.0,41,0.00,,---,0.00,VWS V14.01,2013-02-04 20:31:00,
2013-02-04 15:36:00,26.0,5.5,29.56,SSE,165,6.0,10.0,41,0.00,,---,0.00,VWS V14.01,2013-02-04 20:36:00,
2013-02-04 15:41:00,25.7,4.7,29.56,SSW,207,7.0,21.0,40,0.00,,---,0.00,VWS V14.01,2013-02-04 20:41:00,
2013-02-04 15:46:00,25.2,4.3,29.56,South,179,9.0,21.0,40,0.00,,---,0.00,VWS V14.01,2013-02-04 20:46:00,
2013-02-04 15:51:00,24.8,3.9,29.56,South,184,7.0,21.0,40,0.00,,---,0.00,VWS V14.01,2013-02-04 20:51:00,
2013-02-04 15:56:00,24.4,4.1,29.56,SSE,167,5.0,21.0,41,0.00,,---,0.00,VWS V14.01,2013-02-04 20:56:00,
2013-02-04 16:00:00,24.8,4.4,29.56,South,184,6.0,21.0,41,0.00,,---,0.00,VWS V14.01,2013-02-04 21:00:00,
2013-02-04 16:01:00,24.6,4.8,29.56,SSW,201,2.0,21.0,42,0.00,,---,0.00,VWS V14.01,2013-02-04 21:01:00,
2013-02-04 16:06:00,24.9,4.5,29.56,South,176,7.0,11.0,41,0.00,,---,0.00,VWS V14.01,2013-02-04 21:06:00,
2013-02-04 16:11:00,24.9,4.5,29.56,SSE,158,13.0,13.0,41,0.00,,---,0.00,VWS V14.01,2013-02-04 21:11:00,
2013-02-04 16:16:00,24.8,4.4,29.56,SW,221,11.0,13.0,41,0.00,,---,0.00,VWS V14.01,2013-02-04 21:16:00,
2013-02-04 16:21:00,24.6,3.7,29.57,South,186,6.0,20.0,40,0.00,,---,0.00,VWS V14.01,2013-02-04 21:21:00,
2013-02-04 16:26:00,24.3,3.5,29.57,SSE,164,12.0,20.0,40,0.00,,---,0.00,VWS V14.01,2013-02-04 21:26:00,
2013-02-04 16:30:00,23.8,3.5,29.57,SSW,201,10.0,21.0,41,0.00,,---,0.00,VWS V14.01,2013-02-04 21:30:00,
2013-02-04 16:31:00,24.1,3.8,29.57,South,173,14.0,20.0,41,0.00,,---,0.00,VWS V14.01,2013-02-04 21:31:00,
2013-02-04 16:36:00,23.7,3.5,29.57,SSE,163,8.0,12.0,41,0.00,,---,0.00,VWS V14.01,2013-02-04 21:36:00,
2013-02-04 16:41:00,23.5,3.3,29.57,South,191,2.0,19.0,41,0.00,,---,0.00,VWS V14.01,2013-02-04 21:41:00,
2013-02-04 16:46:00,23.3,2.0,29.58,South,174,12.0,21.0,39,0.00,,---,0.00,VWS V14.01,2013-02-04 21:46:00,
2013-02-04 16:51:00,23.2,1.9,29.58,SSW,192,7.0,21.0,39,0.00,,---,0.00,VWS V14.01,2013-02-04 21:51:00,
2013-02-04 16:56:00,23.0,1.8,29.58,SE,146,11.0,21.0,39,0.00,,---,0.00,VWS V14.01,2013-02-04 21:56:00,
2013-02-04 17:00:00,22.7,2.0,29.58,SSW,211,5.0,21.0,40,0.00,,---,0.00,VWS V14.01,2013-02-04 22:00:00,
2013-02-04 17:01:00,22.9,1.7,29.58,SSE,163,6.0,21.0,39,0.00,,---,0.00,VWS V14.01,2013-02-04 22:01:00,
2013-02-04 17:06:00,22.6,1.9,29.58,SSE,156,7.0,13.0,40,0.00,,---,0.00,VWS V14.01,2013-02-04 22:06:00,
2013-02-04 17:11:00,22.5,1.8,29.59,SSE,167,7.0,17.0,40,0.00,,---,0.00,VWS V14.01,2013-02-04 22:11:00,
2013-02-04 17:16:00,22.4,1.8,29.59,SSE,156,9.0,17.0,40,0.00,,---,0.00,VWS V14.01,2013-02-04 22:16:00,
2013-02-04 17:21:00,22.3,1.7,29.59,South,186,8.0,18.0,40,0.00,,---,0.00,VWS V14.01,2013-02-04 22:21:00,
2013-02-04 17:26:00,22.3,1.7,29.60,South,189,9.0,22.0,40,0.00,,---,0.00,VWS V14.01,2013-02-04 22:26:00,
2013-02-04 17:30:00,22.1,2.0,29.60,South,175,7.0,22.0,41,0.00,,---,0.00,VWS V14.01,2013-02-04 22:30:00,
2013-02-04 17:31:00,22.3,1.7,29.60,SW,225,7.0,22.0,40,0.00,,---,0.00,VWS V14.01,2013-02-04 22:31:00,
2013-02-04 17:36:00,22.1,2.0,29.60,SSW,201,5.0,11.0,41,0.00,,---,0.00,VWS V14.01,2013-02-04 22:36:00,
2013-02-04 17:41:00,22.0,1.9,29.60,South,180,3.0,14.0,41,0.00,,---,0.00,VWS V14.01,2013-02-04 22:41:00,
2013-02-04 17:46:00,21.7,1.6,29.60,South,169,14.0,14.0,41,0.00,,---,0.00,VWS V14.01,2013-02-04 22:46:00,
2013-02-04 17:51:00,21.7,2.2,29.61,SW,215,7.0,15.0,42,0.00,,---,0.00,VWS V14.01,2013-02-04 22:51:00,
2013-02-04 17:56:00,21.6,1.5,29.61,SSW,204,7.0,15.0,41,0.00,,---,0.00,VWS V14.01,2013-02-04 22:56:00,
2013-02-04 18:00:00,21.5,0.9,29.61,SSE,165,13.0,18.0,40,0.00,,---,0.00,VWS V14.01,2013-02-04 23:00:00,
2013-02-04 18:01:00,21.5,1.5,29.61,South,178,7.0,18.0,41,0.00,,---,0.00,VWS V14.01,2013-02-04 23:01:00,
2013-02-04 18:06:00,21.5,0.9,29.61,SSE,159,5.0,17.0,40,0.00,,---,0.00,VWS V14.01,2013-02-04 23:06:00,
2013-02-04 18:11:00,21.6,0.5,29.61,SSE,166,6.0,19.0,39,0.00,,---,0.00,VWS V14.01,2013-02-04 23:11:00,
2013-02-04 18:16:00,21.4,0.3,29.62,SSW,192,7.0,19.0,39,0.00,,---,0.00,VWS V14.01,2013-02-04 23:16:00,
2013-02-04 18:21:00,21.3,0.2,29.62,South,175,9.0,19.0,39,0.00,,---,0.00,VWS V14.01,2013-02-04 23:21:00,
2013-02-04 18:26:00,21.2,0.7,29.62,South,177,7.0,19.0,40,0.00,,---,0.00,VWS V14.01,2013-02-04 23:26:00,
2013-02-04 18:30:00,21.2,0.7,29.62,SSE,167,7.0,19.0,40,0.00,,---,0.00,VWS V14.01,2013-02-04 23:30:00,
2013-02-04 18:31:00,21.1,0.6,29.62,SSE,161,6.0,19.0,40,0.00,,---,0.00,VWS V14.01,2013-02-04 23:31:00,
2013-02-04 18:36:00,21.1,0.6,29.62,SSE,150,10.0,13.0,40,0.00,,---,0.00,VWS V14.01,2013-02-04 23:36:00,
2013-02-04 18:41:00,20.9,0.4,29.62,South,177,7.0,13.0,40,0.00,,---,0.00,VWS V14.01,2013-02-04 23:41:00,
2013-02-04 18:45:00,20.7,0.7,29.62,South,169,5.0,13.0,41,0.00,,---,0.00,VWS V14.01,2013-02-04 23:45:00,
2013-02-04 18:50:00,20.5,0.6,29.62,SSW,192,5.0,13.0,41,0.00,,---,0.00,VWS V14.01,2013-02-04 23:50:00,
2013-02-04 18:55:00,20.3,0.9,29.63,SSE,153,4.0,13.0,42,0.00,,---,0.00,VWS V14.01,2013-02-04 23:55:00,
2013-02-04 19:00:00,20.1,0.7,29.63,SSW,192,5.0,13.0,42,0.00,,---,0.00,VWS V14.01,2013-02-05 00:00:00,
2013-02-04 19:06:00,19.9,1.0,29.63,South,174,3.0,4.0,43,0.00,,---,0.00,VWS V14.01,2013-02-05 00:06:00,
2013-02-04 19:11:00,19.7,0.8,29.63,SSE,159,4.0,5.0,43,0.00,,---,0.00,VWS V14.01,2013-02-05 00:11:00,
2013-02-04 19:16:00,19.5,1.1,29.64,SW,220,5.0,7.0,44,0.00,,---,0.00,VWS V14.01,2013-02-05 00:16:00,
2013-02-04 19:21:00,19.4,1.5,29.64,SSW,198,1.0,9.0,45,0.00,,---,0.00,VWS V14.01,2013-02-05 00:21:00,
2013-02-04 19:25:00,19.4,1.5,29.64,SW,219,3.0,9.0,45,0.00,,---,0.00,VWS V14.01,2013-02-05 00:25:00,
2013-02-04 19:30:00,19.3,1.5,29.64,South,169,4.0,9.0,45,0.00,,---,0.00,VWS V14.01,2013-02-05 00:30:00,
2013-02-04 19:35:00,19.1,1.7,29.64,SSW,197,4.0,4.0,46,0.00,,---,0.00,VWS V14.01,2013-02-05 00:35:00,
2013-02-04 19:40:00,19.0,1.6,29.65,SSW,205,3.0,7.0,46,0.00,,---,0.00,VWS V14.01,2013-02-05 00:40:00,
2013-02-04 19:45:00,18.8,1.9,29.65,SSW,200,4.0,7.0,47,0.00,,---,0.00,VWS V14.01,2013-02-05 00:45:00,
2013-02-04 19:50:00,18.6,1.7,29.65,SSW,194,1.0,7.0,47,0.00,,---,0.00,VWS V14.01,2013-02-05 00:50:00,
2013-02-04 19:56:00,18.4,1.5,29.65,SW,234,6.0,8.0,47,0.00,,---,0.00,VWS V14.01,2013-02-05 00:56:00,
2013-02-04 20:00:00,18.4,1.5,29.66,SSW,197,2.0,9.0,47,0.00,,---,0.00,VWS V14.01,2013-02-05 01:00:00,
2013-02-04 20:01:00,18.4,1.5,29.65,South,173,4.0,8.0,47,0.00,,---,0.00,VWS V14.01,2013-02-05 01:01:00,
2013-02-04 20:06:00,18.4,1.5,29.66,South,184,5.0,9.0,47,0.00,,---,0.00,VWS V14.01,2013-02-05 01:06:00,
2013-02-04 20:11:00,18.5,1.6,29.66,SW,221,9.0,12.0,47,0.00,,---,0.00,VWS V14.01,2013-02-05 01:11:00,
2013-02-04 20:16:00,18.5,1.6,29.66,SSE,168,3.0,12.0,47,0.00,,---,0.00,VWS V14.01,2013-02-05 01:16:00,
2013-02-04 20:21:00,18.5,1.6,29.66,South,173,0.0,12.0,47,0.00,,---,0.00,VWS V14.01,2013-02-05 01:21:00,
2013-02-04 20:26:00,18.4,1.5,29.66,SSW,200,4.0,12.0,47,0.00,,---,0.00,VWS V14.01,2013-02-05 01:26:00,
2013-02-04 20:30:00,18.4,1.5,29.67,South,180,6.0,12.0,47,0.00,,---,0.00,VWS V14.01,2013-02-05 01:30:00,
2013-02-04 20:31:00,18.3,1.5,29.67,SSW,198,7.0,12.0,47,0.00,,---,0.00,VWS V14.01,2013-02-05 01:31:00,
2013-02-04 20:36:00,18.5,1.6,29.67,South,171,9.0,12.0,47,0.00,,---,0.00,VWS V14.01,2013-02-05 01:36:00,
2013-02-04 20:41:00,18.5,1.6,29.67,SSE,168,5.0,12.0,47,0.00,,---,0.00,VWS V14.01,2013-02-05 01:41:00,
2013-02-04 20:46:00,18.6,1.7,29.67,SE,133,16.0,16.0,47,0.00,,---,0.00,VWS V14.01,2013-02-05 01:46:00,
2013-02-04 20:51:00,18.6,1.3,29.67,SE,132,8.0,20.0,46,0.00,,---,0.00,VWS V14.01,2013-02-05 01:51:00,
2013-02-04 20:56:00,18.7,0.9,29.67,SSE,156,7.0,20.0,45,0.00,,---,0.00,VWS V14.01,2013-02-05 01:56:00,
2013-02-04 21:00:00,18.4,0.6,29.68,South,173,14.0,20.0,45,0.00,,---,0.00,VWS V14.01,2013-02-05 02:00:00,
2013-02-04 21:01:00,18.4,0.6,29.68,South,184,6.0,20.0,45,0.00,,---,0.00,VWS V14.01,2013-02-05 02:01:00,
2013-02-04 21:06:00,18.4,0.1,29.68,SSE,167,9.0,16.0,44,0.00,,---,0.00,VWS V14.01,2013-02-05 02:06:00,
2013-02-04 21:11:00,18.4,-0.9,29.68,SSE,148,23.0,27.0,42,0.00,,---,0.00,VWS V14.01,2013-02-05 02:11:00,
2013-02-04 21:16:00,18.5,-1.3,29.68,South,185,9.0,27.0,41,0.00,,---,0.00,VWS V14.01,2013-02-05 02:16:00,
2013-02-04 21:21:00,18.4,-1.4,29.69,SE,126,8.0,27.0,41,0.00,,---,0.00,VWS V14.01,2013-02-05 02:21:00,
2013-02-04 21:26:00,18.3,-1.5,29.69,South,169,8.0,27.0,41,0.00,,---,0.00,VWS V14.01,2013-02-05 02:26:00,
2013-02-04 21:30:00,17.9,-1.3,29.69,South,191,10.0,27.0,42,0.00,,---,0.00,VWS V14.01,2013-02-05 02:30:00,
2013-02-04 21:31:00,18.0,-1.2,29.69,South,169,7.0,27.0,42,0.00,,---,0.00,VWS V14.01,2013-02-05 02:31:00,
2013-02-04 21:36:00,17.8,-1.4,29.69,South,171,15.0,18.0,42,0.00,,---,0.00,VWS V14.01,2013-02-05 02:36:00,
2013-02-04 21:41:00,17.7,-1.5,29.70,SSW,197,8.0,20.0,42,0.00,,---,0.00,VWS V14.01,2013-02-05 02:41:00,
2013-02-04 21:46:00,17.4,-3.3,29.70,South,178,10.0,20.0,39,0.00,,---,0.00,VWS V14.01,2013-02-05 02:46:00,
2013-02-04 21:51:00,17.3,-3.9,29.71,SE,143,11.0,21.0,38,0.00,,---,0.00,VWS V14.01,2013-02-05 02:51:00,
2013-02-04 21:56:00,17.2,-4.6,29.70,South,173,9.0,23.0,37,0.00,,---,0.00,VWS V14.01,2013-02-05 02:56:00,
2013-02-04 22:00:00,17.1,-5.2,29.71,SSW,205,12.0,31.0,36,0.00,,---,0.00,VWS V14.01,2013-02-05 03:00:00,
2013-02-04 22:01:00,17.1,-4.7,29.71,SE,132,9.0,25.0,37,0.00,,---,0.00,VWS V14.01,2013-02-05 03:01:00,
2013-02-04 22:05:00,17.1,-5.2,29.71,SSE,167,9.0,25.0,36,0.00,,---,0.00,VWS V14.01,2013-02-05 03:05:00,
2013-02-04 22:10:00,16.9,-4.9,29.72,SW,223,8.0,26.0,37,0.00,,---,0.00,VWS V14.01,2013-02-05 03:10:00,
2013-02-04 22:15:00,16.9,-5.4,29.72,SSE,168,25.0,26.0,36,0.00,,---,0.00,VWS V14.01,2013-02-05 03:15:00,
2013-02-04 22:20:00,16.7,-5.6,29.72,South,185,5.0,26.0,36,0.00,,---,0.00,VWS V14.01,2013-02-05 03:20:00,
2013-02-04 22:25:00,16.6,-5.1,29.72,SSE,165,14.0,26.0,37,0.00,,---,0.00,VWS V14.01,2013-02-05 03:25:00,
2013-02-04 22:30:00,16.4,-5.3,29.72,South,169,17.0,26.0,37,0.00,,---,0.00,VWS V14.01,2013-02-05 03:30:00,
2013-02-04 22:35:00,16.3,-5.4,29.73,SW,215,7.0,7.0,37,0.00,,---,0.00,VWS V14.01,2013-02-05 03:35:00,
2013-02-04 22:40:00,16.1,-5.6,29.73,SSE,148,8.0,17.0,37,0.00,,---,0.00,VWS V14.01,2013-02-05 03:40:00,
2013-02-04 22:45:00,16.1,-5.6,29.73,South,171,8.0,20.0,37,0.00,,---,0.00,VWS V14.01,2013-02-05 03:45:00,
2013-02-04 22:50:00,16.0,-5.7,29.74,SW,216,5.0,20.0,37,0.00,,---,0.00,VWS V14.01,2013-02-05 03:50:00,
2013-02-04 22:55:00,15.7,-5.4,29.74,SSE,167,6.0,20.0,38,0.00,,---,0.00,VWS V14.01,2013-02-05 03:55:00,
2013-02-04 23:00:00,15.6,-5.5,29.74,South,190,4.0,20.0,38,0.00,,---,0.00,VWS V14.01,2013-02-05 04:00:00,
2013-02-04 23:05:00,15.4,-5.1,29.74,South,170,11.0,21.0,39,0.00,,---,0.00,VWS V14.01,2013-02-05 04:05:00,
2013-02-04 23:10:00,15.3,-5.8,29.74,SSE,165,10.0,21.0,38,0.00,,---,0.00,VWS V14.01,2013-02-05 04:10:00,
2013-02-04 23:15:00,15.4,-5.7,29.74,SSE,165,6.0,21.0,38,0.00,,---,0.00,VWS V14.01,2013-02-05 04:15:00,
2013-02-04 23:20:00,15.3,-5.8,29.75,SSW,198,7.0,21.0,38,0.00,,---,0.00,VWS V14.01,2013-02-05 04:20:00,
2013-02-04 23:25:00,15.3,-5.8,29.75,SSE,159,12.0,21.0,38,0.00,,---,0.00,VWS V14.01,2013-02-05 04:25:00,
2013-02-04 23:30:00,15.3,-5.2,29.75,SSE,148,5.0,21.0,39,0.00,,---,0.00,VWS V14.01,2013-02-05 04:30:00,
2013-02-04 23:35:00,15.3,-5.2,29.75,SSE,156,16.0,17.0,39,0.00,,---,0.00,VWS V14.01,2013-02-05 04:35:00,
2013-02-04 23:40:00,15.3,-5.8,29.75,SSE,148,11.0,21.0,38,0.00,,---,0.00,VWS V14.01,2013-02-05 04:40:00,
2013-02-04 23:45:00,15.2,-5.8,29.76,SSE,153,11.0,21.0,38,0.00,,---,0.00,VWS V14.01,2013-02-05 04:45:00,
2013-02-04 23:50:00,15.1,-5.4,29.76,South,171,6.0,21.0,39,0.00,,---,0.00,VWS V14.01,2013-02-05 04:50:00,
2013-02-04 23:55:00,14.9,-5.1,29.76,SE,138,5.0,21.0,40,0.00,,---,0.00,VWS V14.01,2013-02-05 04:55:00,